Time,TemperatureF,DewpointF,PressureIn,WindDirection,WindDirectionDegrees,WindSpeedMPH,WindSpeedGustMPH,Humidity,HourlyPrecipIn,Conditions,Clouds,dailyrainin,SoftwareType,DateUTC
2013-01-17 00:00:00,29.3,24.2,30.20,WSW,258,0.0,2.0,81,0.00,,-RA,0.00,VWS V14.00,2013-01-17 06:00:00,
2013-01-17 00:03:00,28.7,24.5,30.20,WSW,258,1.0,2.0,84,0.00,,CLR,0.00,VWS V14.00,2013-01-17 06:03:00,
2013-01-17 00:08:00,28.5,24.3,30.20,WSW,258,0.0,3.0,84,0.00,,CLR,0.00,VWS V14.00,2013-01-17 06:08:00,
2013-01-17 00:13:00,28.3,24.1,30.20,WSW,258,0.0,3.0,84,0.00,,CLR,0.00,VWS V14.00,2013-01-17 06:13:00,
2013-01-17 00:18:00,28.1,24.5,30.20,WSW,258,0.0,3.0,86,0.00,,CLR,0.00,VWS V14.00,2013-01-17 06:18:00,
2013-01-17 00:23:00,27.9,24.3,30.20,WSW,258,0.0,0.0,86,0.00,,CLR,0.00,VWS V14.00,2013-01-17 06:23:00,
2013-01-17 00:28:00,27.7,24.3,30.20,WSW,258,0.0,0.0,87,0.00,,CLR,0.00,VWS V14.00,2013-01-17 06:28:00,
2013-01-17 00:30:00,28.0,24.4,30.20,WSW,258,0.0,3.0,86,0.00,,-RA,0.00,VWS V14.00,2013-01-17 06:30:00,
2013-01-17 00:33:00,27.5,24.1,30.21,WSW,258,0.0,1.0,87,0.00,,CLR,0.00,VWS V14.00,2013-01-17 06:33:00,
2013-01-17 00:38:00,27.3,24.0,30.21,WSW,258,0.0,1.0,87,0.00,,CLR,0.00,VWS V14.00,2013-01-17 06:38:00,
2013-01-17 00:43:00,27.1,24.0,30.20,WSW,258,0.0,1.0,88,0.00,,CLR,0.00,VWS V14.00,2013-01-17 06:43:00,
2013-01-17 00:48:00,27.0,23.9,30.20,WSW,258,0.0,1.0,88,0.00,,CLR,0.00,VWS V14.00,2013-01-17 06:48:00,
2013-01-17 00:53:00,26.9,23.8,30.21,WSW,258,3.0,3.0,88,0.00,,CLR,0.00,VWS V14.00,2013-01-17 06:53:00,
2013-01-17 00:58:00,26.9,24.1,30.21,WSW,258,3.0,4.0,89,0.00,,CLR,0.00,VWS V14.00,2013-01-17 06:58:00,
2013-01-17 01:00:00,26.9,23.8,30.20,WSW,258,3.0,3.0,88,0.00,,-RA,0.00,VWS V14.00,2013-01-17 07:00:00,
2013-01-17 01:03:00,26.9,24.1,30.22,WSW,258,0.0,4.0,89,0.00,,SCT046,0.00,VWS V14.00,2013-01-17 07:03:00,
2013-01-17 01:08:00,27.4,24.6,30.22,WSW,257,2.0,6.0,89,0.00,,SCT046,0.00,VWS V14.00,2013-01-17 07:08:00,
2013-01-17 01:13:00,28.0,24.9,30.22,WSW,257,0.0,6.0,88,0.00,,SCT046,0.00,VWS V14.00,2013-01-17 07:13:00,
2013-01-17 01:18:00,28.0,25.2,30.22,WSW,257,0.0,6.0,89,0.00,,SCT046,0.00,VWS V14.00,2013-01-17 07:18:00,
2013-01-17 01:23:00,28.0,25.2,30.22,WSW,257,0.0,1.0,89,0.00,,OVC046,0.00,VWS V14.00,2013-01-17 07:23:00,
2013-01-17 01:28:00,28.0,25.2,30.22,WSW,257,0.0,3.0,89,0.00,,OVC046,0.00,VWS V14.00,2013-01-17 07:28:00,
2013-01-17 01:30:00,28.0,25.2,30.22,WSW,257,0.0,6.0,89,0.00,,-RA,0.00,VWS V14.00,2013-01-17 07:30:00,
2013-01-17 01:33:00,28.1,25.3,30.22,WSW,257,0.0,3.0,89,0.00,,OVC046,0.00,VWS V14.00,2013-01-17 07:33:00,
2013-01-17 01:38:00,28.3,25.5,30.22,WNW,282,1.0,6.0,89,0.00,,OVC046,0.00,VWS V14.00,2013-01-17 07:38:00,
2013-01-17 01:43:00,28.7,25.9,30.22,West,281,0.0,6.0,89,0.00,,OVC046,0.00,VWS V14.00,2013-01-17 07:43:00,
2013-01-17 01:48:00,28.9,26.1,30.22,WNW,291,4.0,6.0,89,0.00,,OVC046,0.00,VWS V14.00,2013-01-17 07:48:00,
2013-01-17 01:53:00,29.4,26.3,30.22,WNW,291,1.0,3.0,88,0.00,,OVC046,0.00,VWS V14.00,2013-01-17 07:53:00,
2013-01-17 01:58:00,29.8,26.4,30.22,WNW,291,2.0,4.0,87,0.00,,OVC046,0.00,VWS V14.00,2013-01-17 07:58:00,
2013-01-17 02:00:00,29.2,26.1,30.22,WNW,291,2.0,6.0,88,0.00,,-RA,0.00,VWS V14.00,2013-01-17 08:00:00,
2013-01-17 02:03:00,30.1,26.4,30.23,WNW,291,2.0,4.0,86,0.00,,OVC046,0.00,VWS V14.00,2013-01-17 08:03:00,
2013-01-17 02:08:00,30.7,26.5,30.23,WNW,292,3.0,4.0,84,0.00,,OVC046,0.00,VWS V14.00,2013-01-17 08:08:00,
2013-01-17 02:13:00,30.8,26.8,30.22,WNW,292,0.0,4.0,85,0.00,,OVC046,0.00,VWS V14.00,2013-01-17 08:13:00,
2013-01-17 02:18:00,30.8,26.8,30.22,WNW,292,1.0,4.0,85,0.00,,OVC046,0.00,VWS V14.00,2013-01-17 08:18:00,
2013-01-17 02:23:00,30.7,27.0,30.22,WNW,292,0.0,2.0,86,0.00,,OVC046,0.00,VWS V14.00,2013-01-17 08:23:00,
2013-01-17 02:28:00,30.7,27.0,30.22,WNW,292,0.0,2.0,86,0.00,,OVC046,0.00,VWS V14.00,2013-01-17 08:28:00,
2013-01-17 02:30:00,30.7,27.0,30.22,WNW,292,0.0,4.0,86,0.00,,-RA,0.00,VWS V14.00,2013-01-17 08:30:00,
2013-01-17 02:32:00,30.8,26.8,30.22,WNW,291,2.0,5.0,85,0.00,,OVC046,0.00,VWS V14.00,2013-01-17 08:32:00,
2013-01-17 02:38:00,31.3,27.0,30.22,WNW,291,0.0,5.0,84,0.00,,OVC046,0.00,VWS V14.00,2013-01-17 08:38:00,
2013-01-17 02:42:00,31.4,27.1,30.22,WNW,292,0.0,6.0,84,0.00,,OVC046,0.00,VWS V14.00,2013-01-17 08:42:00,
2013-01-17 02:47:00,31.6,27.0,30.23,WNW,292,1.0,6.0,83,0.00,,OVC046,0.00,VWS V14.00,2013-01-17 08:47:00,
2013-01-17 02:52:00,32.0,26.8,30.22,West,279,0.0,5.0,81,0.00,,OVC046,0.00,VWS V14.00,2013-01-17 08:52:00,
2013-01-17 02:57:00,32.2,27.0,30.24,West,279,2.0,5.0,81,0.00,,OVC046,0.00,VWS V14.00,2013-01-17 08:57:00,
2013-01-17 03:00:00,31.7,26.2,30.23,WNW,292,3.0,6.0,80,0.00,,-RA,0.00,VWS V14.00,2013-01-17 09:00:00,
2013-01-17 03:02:00,32.4,26.6,30.23,West,279,0.0,5.0,79,0.00,,OVC046,0.00,VWS V14.00,2013-01-17 09:02:00,
2013-01-17 03:07:00,32.5,26.4,30.23,West,279,1.0,5.0,78,0.00,,OVC046,0.00,VWS V14.00,2013-01-17 09:07:00,
2013-01-17 03:12:00,32.6,26.8,30.22,West,279,0.0,5.0,79,0.00,,OVC046,0.00,VWS V14.00,2013-01-17 09:12:00,
2013-01-17 03:17:00,32.6,26.8,30.22,West,279,0.0,5.0,79,0.00,,OVC046,0.00,VWS V14.00,2013-01-17 09:17:00,
2013-01-17 03:22:00,32.5,26.7,30.22,West,279,0.0,0.0,79,0.00,,OVC046,0.00,VWS V14.00,2013-01-17 09:22:00,
2013-01-17 03:27:00,32.3,27.1,30.23,West,279,1.0,2.0,81,0.00,,OVC046,0.00,VWS V14.00,2013-01-17 09:27:00,
2013-01-17 03:30:00,32.6,26.8,30.22,West,279,0.0,5.0,79,0.00,,-RA,0.00,VWS V14.00,2013-01-17 09:30:00,
2013-01-17 03:32:00,32.1,27.2,30.23,West,279,1.0,2.0,82,0.00,,OVC046,0.00,VWS V14.00,2013-01-17 09:32:00,
2013-01-17 03:37:00,32.0,27.7,30.23,West,279,0.0,3.0,84,0.00,,OVC046,0.00,VWS V14.00,2013-01-17 09:37:00,
2013-01-17 03:42:00,31.9,27.6,30.23,West,279,1.0,3.0,84,0.00,,OVC046,0.00,VWS V14.00,2013-01-17 09:42:00,
2013-01-17 03:47:00,31.9,26.7,30.23,West,279,1.0,3.0,81,0.00,,OVC046,0.00,VWS V14.00,2013-01-17 09:47:00,
2013-01-17 03:52:00,32.1,26.9,30.23,West,279,3.0,3.0,81,0.00,,OVC046,0.00,VWS V14.00,2013-01-17 09:52:00,
2013-01-17 03:57:00,32.3,27.1,30.24,West,279,0.0,3.0,81,0.00,,OVC046,0.00,VWS V14.00,2013-01-17 09:57:00,
2013-01-17 04:00:00,32.0,26.5,30.23,West,279,0.0,3.0,80,0.00,,-RA,0.00,VWS V14.00,2013-01-17 10:00:00,
2013-01-17 04:02:00,32.3,26.5,30.24,West,279,1.0,3.0,79,0.00,,OVC046,0.00,VWS V14.00,2013-01-17 10:02:00,
2013-01-17 04:07:00,32.4,26.9,30.24,West,279,0.0,3.0,80,0.00,,OVC046,0.00,VWS V14.00,2013-01-17 10:07:00,
2013-01-17 04:12:00,32.3,27.7,30.24,West,279,1.0,3.0,83,0.00,,OVC046,0.00,VWS V14.00,2013-01-17 10:12:00,
2013-01-17 04:17:00,32.1,27.2,30.24,West,279,0.0,3.0,82,0.00,,OVC046,0.00,VWS V14.00,2013-01-17 10:17:00,
2013-01-17 04:22:00,32.0,27.1,30.25,West,279,1.0,2.0,82,0.00,,OVC046,0.00,VWS V14.00,2013-01-17 10:22:00,
2013-01-17 04:27:00,31.9,27.6,30.25,West,279,1.0,3.0,84,0.00,,OVC046,0.00,VWS V14.00,2013-01-17 10:27:00,
2013-01-17 04:30:00,32.0,27.4,30.25,West,279,0.0,3.0,83,0.00,,-RA,0.00,VWS V14.00,2013-01-17 10:30:00,
2013-01-17 04:32:00,31.8,27.8,30.25,West,279,0.0,4.0,85,0.00,,OVC046,0.00,VWS V14.00,2013-01-17 10:32:00,
2013-01-17 04:37:00,31.7,27.1,30.25,West,279,0.0,4.0,83,0.00,,OVC046,0.00,VWS V14.00,2013-01-17 10:37:00,
2013-01-17 04:42:00,31.7,27.4,30.24,West,279,1.0,4.0,84,0.00,,OVC046,0.00,VWS V14.00,2013-01-17 10:42:00,
2013-01-17 04:47:00,31.8,27.5,30.25,West,279,0.0,4.0,84,0.00,,OVC046,0.00,VWS V14.00,2013-01-17 10:47:00,
2013-01-17 04:52:00,31.9,27.3,30.25,West,279,0.0,1.0,83,0.00,,OVC046,0.00,VWS V14.00,2013-01-17 10:52:00,
2013-01-17 04:57:00,31.8,27.2,30.25,West,279,0.0,1.0,83,0.00,,OVC046,0.00,VWS V14.00,2013-01-17 10:57:00,
2013-01-17 05:00:00,31.8,27.2,30.25,West,279,0.0,4.0,83,0.00,,-RA,0.00,VWS V14.00,2013-01-17 11:00:00,
2013-01-17 05:02:00,31.8,27.5,30.25,West,279,0.0,2.0,84,0.00,,OVC048,0.00,VWS V14.00,2013-01-17 11:02:00,
2013-01-17 05:07:00,31.8,27.5,30.25,West,279,0.0,2.0,84,0.00,,OVC048,0.00,VWS V14.00,2013-01-17 11:07:00,
2013-01-17 05:12:00,31.8,27.5,30.25,West,279,0.0,2.0,84,0.00,,OVC048,0.00,VWS V14.00,2013-01-17 11:12:00,
2013-01-17 05:17:00,31.8,27.8,30.25,West,279,0.0,2.0,85,0.00,,OVC048,0.00,VWS V14.00,2013-01-17 11:17:00,
2013-01-17 05:22:00,31.7,27.7,30.25,West,279,0.0,2.0,85,0.00,,OVC048,0.00,VWS V14.00,2013-01-17 11:22:00,
2013-01-17 05:27:00,31.8,27.8,30.26,West,279,0.0,2.0,85,0.00,,OVC048,0.00,VWS V14.00,2013-01-17 11:27:00,
2013-01-17 05:30:00,31.7,27.7,30.25,West,279,0.0,3.0,85,0.00,,-RA,0.00,VWS V14.00,2013-01-17 11:30:00,
2013-01-17 05:32:00,31.7,27.4,30.25,West,279,0.0,3.0,84,0.00,,OVC048,0.00,VWS V14.00,2013-01-17 11:32:00,
2013-01-17 05:37:00,31.8,27.5,30.25,West,279,0.0,3.0,84,0.00,,OVC048,0.00,VWS V14.00,2013-01-17 11:37:00,
2013-01-17 05:42:00,31.8,26.9,30.25,West,279,0.0,3.0,82,0.00,,OVC048,0.00,VWS V14.00,2013-01-17 11:42:00,
2013-01-17 05:47:00,32.0,27.1,30.25,West,279,1.0,3.0,82,0.00,,OVC048,0.00,VWS V14.00,2013-01-17 11:47:00,
2013-01-17 05:52:00,32.1,27.5,30.25,West,279,0.0,1.0,83,0.00,,OVC048,0.00,VWS V14.00,2013-01-17 11:52:00,
2013-01-17 05:57:00,32.1,27.5,30.25,West,279,0.0,3.0,83,0.00,,OVC048,0.00,VWS V14.00,2013-01-17 11:57:00,
2013-01-17 06:00:00,32.0,27.4,30.25,West,279,0.0,3.0,83,0.00,,-RA,0.00,VWS V14.00,2013-01-17 12:00:00,
2013-01-17 06:02:00,32.1,27.8,30.26,West,279,0.0,3.0,84,0.00,,OVC048,0.00,VWS V14.00,2013-01-17 12:02:00,
2013-01-17 06:07:00,32.1,27.8,30.26,West,279,0.0,3.0,84,0.00,,OVC048,0.00,VWS V14.00,2013-01-17 12:07:00,
2013-01-17 06:12:00,32.0,28.0,30.25,West,279,0.0,3.0,85,0.00,,OVC048,0.00,VWS V14.00,2013-01-17 12:12:00,
2013-01-17 06:17:00,31.9,27.9,30.26,West,280,0.0,3.0,85,0.00,,OVC048,0.00,VWS V14.00,2013-01-17 12:17:00,
2013-01-17 06:22:00,31.9,27.9,30.26,West,280,0.0,1.0,85,0.00,,OVC048,0.00,VWS V14.00,2013-01-17 12:22:00,
2013-01-17 06:27:00,31.9,28.2,30.26,West,280,0.0,1.0,86,0.00,,OVC048,0.00,VWS V14.00,2013-01-17 12:27:00,
2013-01-17 06:30:00,31.9,27.9,30.26,West,280,0.0,3.0,85,0.00,,-RA,0.00,VWS V14.00,2013-01-17 12:30:00,
2013-01-17 06:32:00,31.8,28.1,30.26,West,280,0.0,1.0,86,0.00,,OVC048,0.00,VWS V14.00,2013-01-17 12:32:00,
2013-01-17 06:37:00,31.8,28.1,30.26,West,280,0.0,2.0,86,0.00,,OVC048,0.00,VWS V14.00,2013-01-17 12:37:00,
2013-01-17 06:42:00,31.7,28.3,30.27,WNW,284,0.0,3.0,87,0.00,,OVC050,0.00,VWS V14.00,2013-01-17 12:42:00,
2013-01-17 06:47:00,31.5,27.8,30.27,WNW,292,1.0,4.0,86,0.00,,OVC050,0.00,VWS V14.00,2013-01-17 12:47:00,
2013-01-17 06:52:00,31.3,27.3,30.27,WNW,294,0.0,5.0,85,0.00,,OVC050,0.00,VWS V14.00,2013-01-17 12:52:00,
2013-01-17 06:57:00,31.0,27.0,30.28,WNW,298,0.0,5.0,85,0.00,,OVC050,0.00,VWS V14.00,2013-01-17 12:57:00,
2013-01-17 07:00:00,31.4,27.4,30.27,WNW,292,1.0,4.0,85,0.00,,-RA,0.00,VWS V14.00,2013-01-17 13:00:00,
2013-01-17 07:02:00,30.7,26.7,30.28,NNW,340,0.0,6.0,85,0.00,,SCT050,0.00,VWS V14.00,2013-01-17 13:02:00,
2013-01-17 07:07:00,30.4,26.7,30.28,NNW,337,3.0,6.0,86,0.00,,SCT050,0.00,VWS V14.00,2013-01-17 13:07:00,
2013-01-17 07:12:00,30.3,26.6,30.29,NNW,338,1.0,6.0,86,0.00,,SCT050,0.00,VWS V14.00,2013-01-17 13:12:00,
2013-01-17 07:17:00,30.2,26.8,30.29,North,355,0.0,6.0,87,0.00,,SCT050,0.00,VWS V14.00,2013-01-17 13:17:00,
2013-01-17 07:22:00,30.1,26.7,30.29,NW,317,5.0,5.0,87,0.00,,SCT048,0.00,VWS V14.00,2013-01-17 13:22:00,
2013-01-17 07:27:00,30.1,26.7,30.29,NNW,342,0.0,6.0,87,0.00,,SCT048,0.00,VWS V14.00,2013-01-17 13:27:00,
2013-01-17 07:30:00,30.2,26.8,30.29,North,350,0.0,6.0,87,0.00,,-RA,0.00,VWS V14.00,2013-01-17 13:30:00,
2013-01-17 07:32:00,30.3,26.9,30.30,NNW,333,1.0,6.0,87,0.00,,SCT048,0.00,VWS V14.00,2013-01-17 13:32:00,
2013-01-17 07:37:00,30.5,27.1,30.30,North,5,2.0,6.0,87,0.00,,SCT048,0.00,VWS V14.00,2013-01-17 13:37:00,
2013-01-17 07:42:00,30.7,27.6,30.30,North,5,4.0,8.0,88,0.00,,BKN046,0.00,VWS V14.00,2013-01-17 13:42:00,
2013-01-17 07:47:00,31.1,27.7,30.30,NNW,335,0.0,8.0,87,0.00,,BKN046,0.00,VWS V14.00,2013-01-17 13:47:00,
2013-01-17 07:52:00,31.4,27.7,30.31,North,355,3.0,8.0,86,0.00,,BKN046,0.00,VWS V14.00,2013-01-17 13:52:00,
2013-01-17 07:57:00,31.6,27.9,30.31,North,350,1.0,10.0,86,0.00,,BKN046,0.00,VWS V14.00,2013-01-17 13:57:00,
2013-01-17 08:00:00,31.3,27.9,30.30,North,355,0.0,8.0,87,0.00,,-RA,0.00,VWS V14.00,2013-01-17 14:00:00,
2013-01-17 08:02:00,31.7,28.0,30.31,NW,322,6.0,10.0,86,0.00,,SCT046,0.00,VWS V14.00,2013-01-17 14:02:00,
2013-01-17 08:07:00,32.0,28.3,30.32,NNW,339,1.0,10.0,86,0.00,,SCT046,0.00,VWS V14.00,2013-01-17 14:07:00,
2013-01-17 08:12:00,32.4,28.7,30.32,North,355,4.0,10.0,86,0.00,,SCT046,0.00,VWS V14.00,2013-01-17 14:12:00,
2013-01-17 08:17:00,33.0,29.0,30.32,North,355,5.0,10.0,85,0.00,,SCT046,0.00,VWS V14.00,2013-01-17 14:17:00,
2013-01-17 08:22:00,33.3,29.3,30.33,North,5,7.0,7.0,85,0.00,,CLR,0.00,VWS V14.00,2013-01-17 14:22:00,
2013-01-17 08:27:00,33.6,29.3,30.33,North,5,3.0,10.0,84,0.00,,CLR,0.00,VWS V14.00,2013-01-17 14:27:00,
2013-01-17 08:30:00,33.2,29.2,30.33,NNE,18,3.0,10.0,85,0.00,,-RA,0.00,VWS V14.00,2013-01-17 14:30:00,
2013-01-17 08:32:00,33.9,29.6,30.33,NNW,346,2.0,10.0,84,0.00,,CLR,0.00,VWS V14.00,2013-01-17 14:32:00,
2013-01-17 08:37:00,34.3,30.0,30.34,NNE,17,6.0,10.0,84,0.00,,CLR,0.00,VWS V14.00,2013-01-17 14:37:00,
2013-01-17 08:42:00,34.7,30.1,30.34,NE,53,5.0,10.0,83,0.00,,CLR,0.00,VWS V14.00,2013-01-17 14:42:00,
2013-01-17 08:47:00,35.0,30.4,30.34,NNE,17,3.0,10.0,83,0.00,,CLR,0.00,VWS V14.00,2013-01-17 14:47:00,
2013-01-17 08:52:00,35.3,30.4,30.35,NNE,15,5.0,7.0,82,0.00,,CLR,0.00,VWS V14.00,2013-01-17 14:52:00,
2013-01-17 08:57:00,35.6,30.7,30.35,NW,315,9.0,11.0,82,0.00,,CLR,0.00,VWS V14.00,2013-01-17 14:57:00,
2013-01-17 09:00:00,35.2,30.6,30.35,NNE,13,4.0,10.0,83,0.00,,-RA,0.00,VWS V14.00,2013-01-17 15:00:00,
2013-01-17 09:02:00,35.7,30.8,30.35,NW,325,5.0,11.0,82,0.00,,CLR,0.00,VWS V14.00,2013-01-17 15:02:00,
2013-01-17 09:07:00,35.5,30.6,30.35,North,5,2.0,11.0,82,0.00,,CLR,0.00,VWS V14.00,2013-01-17 15:07:00,
2013-01-17 09:12:00,35.5,30.6,30.35,NNE,19,2.0,11.0,82,0.00,,CLR,0.00,VWS V14.00,2013-01-17 15:12:00,
2013-01-17 09:17:00,35.8,31.1,30.35,NNW,343,5.0,11.0,83,0.01,,CLR,0.01,VWS V14.00,2013-01-17 15:17:00,
2013-01-17 09:22:00,36.3,31.3,30.36,North,355,2.0,6.0,82,0.01,,CLR,0.01,VWS V14.00,2013-01-17 15:22:00,
2013-01-17 09:27:00,36.9,31.9,30.36,North,360,2.0,6.0,82,0.01,,CLR,0.01,VWS V14.00,2013-01-17 15:27:00,
2013-01-17 09:30:00,36.1,31.1,30.36,NNE,25,4.0,11.0,82,0.01,,-RA,0.01,VWS V14.00,2013-01-17 15:30:00,
2013-01-17 09:32:00,37.4,31.8,30.36,NE,54,5.0,11.0,80,0.01,,CLR,0.01,VWS V14.00,2013-01-17 15:32:00,
2013-01-17 09:37:00,37.4,31.8,30.36,NNW,334,4.0,11.0,80,0.01,,CLR,0.01,VWS V14.00,2013-01-17 15:37:00,
2013-01-17 09:42:00,37.6,32.0,30.36,NNE,22,5.0,11.0,80,0.01,,CLR,0.01,VWS V14.00,2013-01-17 15:42:00,
2013-01-17 09:47:00,37.7,32.1,30.36,NE,39,5.0,11.0,80,0.01,,CLR,0.01,VWS V14.00,2013-01-17 15:47:00,
2013-01-17 09:52:00,37.8,32.2,30.36,NNE,17,4.0,11.0,80,0.01,,CLR,0.01,VWS V14.00,2013-01-17 15:52:00,
2013-01-17 09:57:00,38.0,32.4,30.36,North,9,10.0,11.0,80,0.01,,CLR,0.01,VWS V14.00,2013-01-17 15:57:00,
2013-01-17 10:00:00,37.8,32.2,30.36,NW,321,5.0,12.0,80,0.01,,-RA,0.01,VWS V14.00,2013-01-17 16:00:00,
2013-01-17 10:02:00,38.0,32.4,30.37,NNW,336,3.0,11.0,80,0.01,,SCT016,0.01,VWS V14.00,2013-01-17 16:02:00,
2013-01-17 10:07:00,38.0,32.4,30.37,NNE,23,4.0,11.0,80,0.01,,SCT016,0.01,VWS V14.00,2013-01-17 16:07:00,
2013-01-17 10:12:00,37.9,32.3,30.37,NNW,348,5.0,11.0,80,0.01,,SCT016,0.01,VWS V14.00,2013-01-17 16:12:00,
2013-01-17 10:17:00,37.9,32.6,30.37,ENE,74,4.0,12.0,81,0.01,,SCT016,0.01,VWS V14.00,2013-01-17 16:17:00,
2013-01-17 10:22:00,37.9,32.6,30.37,NNW,344,5.0,8.0,81,0.00,,,0.01,VWS V14.00,2013-01-17 16:22:00,
2013-01-17 10:27:00,37.9,32.6,30.37,NNE,23,3.0,10.0,81,0.00,,,0.01,VWS V14.00,2013-01-17 16:27:00,
2013-01-17 10:30:00,37.9,32.6,30.37,WNW,301,7.0,12.0,81,0.01,,-RA,0.01,VWS V14.00,2013-01-17 16:30:00,
2013-01-17 10:32:00,38.0,32.7,30.37,North,360,4.0,10.0,81,0.00,,,0.01,VWS V14.00,2013-01-17 16:32:00,
2013-01-17 10:37:00,37.9,32.6,30.37,NNE,26,5.0,15.0,81,0.01,,,0.02,VWS V14.00,2013-01-17 16:37:00,
2013-01-17 10:42:00,37.8,32.5,30.37,NNE,20,6.0,15.0,81,0.01,,OVC023,0.02,VWS V14.00,2013-01-17 16:42:00,
2013-01-17 10:46:00,37.7,32.4,30.38,NE,55,4.0,15.0,81,0.01,,OVC023,0.02,VWS V14.00,2013-01-17 16:46:00,
2013-01-17 10:51:00,37.5,32.5,30.37,North,5,5.0,9.0,82,0.01,,OVC023,0.02,VWS V14.00,2013-01-17 16:51:00,
2013-01-17 10:56:00,37.4,32.4,30.37,NNE,30,5.0,10.0,82,0.01,,OVC023,0.02,VWS V14.00,2013-01-17 16:56:00,
2013-01-17 11:00:00,37.6,32.3,30.38,North,350,4.0,15.0,81,0.01,,-RA,0.02,VWS V14.00,2013-01-17 17:00:00,
2013-01-17 11:01:00,37.5,32.5,30.37,NNE,13,5.0,13.0,82,0.01,,OVC023,0.02,VWS V14.00,2013-01-17 17:01:00,
2013-01-17 11:06:00,37.6,32.6,30.37,NNE,15,10.0,13.0,82,0.01,,OVC023,0.02,VWS V14.00,2013-01-17 17:06:00,
2013-01-17 11:11:00,37.7,32.4,30.37,NNE,20,4.0,13.0,81,0.01,,OVC023,0.02,VWS V14.00,2013-01-17 17:11:00,
2013-01-17 11:16:00,37.8,32.5,30.36,North,360,6.0,13.0,81,0.01,,OVC023,0.02,VWS V14.00,2013-01-17 17:16:00,
2013-01-17 11:21:00,37.8,32.2,30.36,North,360,4.0,12.0,80,0.01,,OVC023,0.02,VWS V14.00,2013-01-17 17:21:00,
2013-01-17 11:26:00,37.9,32.6,30.36,NW,319,4.0,12.0,81,0.01,,OVC023,0.02,VWS V14.00,2013-01-17 17:26:00,
2013-01-17 11:30:00,37.8,32.2,30.36,NE,37,7.0,13.0,80,0.01,,-RA,0.02,VWS V14.00,2013-01-17 17:30:00,
2013-01-17 11:31:00,38.2,32.6,30.36,NNE,24,5.0,12.0,80,0.01,,OVC023,0.02,VWS V14.00,2013-01-17 17:31:00,
2013-01-17 11:36:00,38.9,33.9,30.36,NE,38,3.0,12.0,82,0.01,,OVC023,0.02,VWS V14.00,2013-01-17 17:36:00,
2013-01-17 11:41:00,39.5,33.5,30.36,NNE,17,3.0,12.0,79,0.01,,BKN025,0.02,VWS V14.00,2013-01-17 17:41:00,
2013-01-17 11:46:00,39.8,33.5,30.36,North,355,6.0,12.0,78,0.01,,BKN025,0.02,VWS V14.00,2013-01-17 17:46:00,
2013-01-17 11:51:00,39.8,33.2,30.36,NNW,331,2.0,8.0,77,0.00,,BKN025,0.02,VWS V14.00,2013-01-17 17:51:00,
2013-01-17 11:56:00,39.6,33.0,30.36,NW,312,6.0,12.0,77,0.00,,BKN025,0.02,VWS V14.00,2013-01-17 17:56:00,
2013-01-17 12:00:00,39.8,33.5,30.36,NNW,331,3.0,12.0,78,0.01,,-RA,0.02,VWS V14.00,2013-01-17 18:00:00,
2013-01-17 12:02:00,39.0,32.4,30.36,WNW,300,2.0,12.0,77,0.00,,OVC017,0.02,VWS V14.00,2013-01-17 18:02:00,
2013-01-17 12:07:00,38.6,32.3,30.36,NNW,347,6.0,12.0,78,0.00,,OVC017,0.02,VWS V14.00,2013-01-17 18:07:00,
2013-01-17 12:12:00,38.5,32.9,30.36,NW,311,7.0,12.0,80,0.00,,OVC017,0.02,VWS V14.00,2013-01-17 18:12:00,
2013-01-17 12:17:00,38.4,31.8,30.36,North,355,5.0,13.0,77,0.00,,OVC017,0.02,VWS V14.00,2013-01-17 18:17:00,
2013-01-17 12:22:00,38.5,32.2,30.36,NNW,331,10.0,11.0,78,0.00,,OVC017,0.02,VWS V14.00,2013-01-17 18:22:00,
2013-01-17 12:27:00,38.5,32.2,30.36,NNE,14,5.0,11.0,78,0.00,,OVC017,0.02,VWS V14.00,2013-01-17 18:27:00,
2013-01-17 12:30:00,38.4,32.2,30.36,NNW,340,5.0,13.0,78,0.00,,-RA,0.02,VWS V14.00,2013-01-17 18:30:00,
2013-01-17 12:32:00,38.6,32.3,30.35,North,11,1.0,11.0,78,0.00,,OVC017,0.02,VWS V14.00,2013-01-17 18:32:00,
2013-01-17 12:37:00,39.3,31.7,30.35,NNE,15,14.0,15.0,74,0.00,,OVC017,0.02,VWS V14.00,2013-01-17 18:37:00,
2013-01-17 12:42:00,39.2,31.6,30.35,North,5,4.0,15.0,74,0.00,,OVC022,0.02,VWS V14.00,2013-01-17 18:42:00,
2013-01-17 12:47:00,39.1,31.9,30.35,NW,317,9.0,15.0,75,0.00,,OVC022,0.02,VWS V14.00,2013-01-17 18:47:00,
2013-01-17 12:52:00,39.2,32.3,30.35,WNW,286,4.0,6.0,76,0.00,,OVC022,0.02,VWS V14.00,2013-01-17 18:52:00,
2013-01-17 12:57:00,39.6,31.7,30.35,North,350,5.0,11.0,73,0.00,,OVC022,0.02,VWS V14.00,2013-01-17 18:57:00,
2013-01-17 13:00:00,39.1,31.9,30.35,SW,234,2.0,15.0,75,0.00,,-RA,0.02,VWS V14.00,2013-01-17 19:00:00,
2013-01-17 13:02:00,39.3,31.4,30.35,North,5,6.0,14.0,73,0.00,,BKN024,0.02,VWS V14.00,2013-01-17 19:02:00,
2013-01-17 13:07:00,39.0,31.8,30.35,NNE,19,4.0,14.0,75,0.00,,BKN024,0.02,VWS V14.00,2013-01-17 19:07:00,
2013-01-17 13:12:00,38.9,31.7,30.36,NNE,19,6.0,18.0,75,0.00,,BKN024,0.02,VWS V14.00,2013-01-17 19:12:00,
2013-01-17 13:17:00,38.6,31.0,30.35,NW,314,4.0,21.0,74,0.00,,BKN024,0.02,VWS V14.00,2013-01-17 19:17:00,
2013-01-17 13:22:00,38.7,31.5,30.35,NNE,26,5.0,13.0,75,0.00,,BKN022,0.02,VWS V14.00,2013-01-17 19:22:00,
2013-01-17 13:27:00,38.6,31.0,30.36,NNE,13,7.0,16.0,74,0.00,,BKN022,0.02,VWS V14.00,2013-01-17 19:27:00,
2013-01-17 13:30:00,38.7,32.1,30.35,West,263,3.0,21.0,77,0.00,,-RA,0.02,VWS V14.00,2013-01-17 19:30:00,
2013-01-17 13:32:00,38.8,31.2,30.36,NNW,334,7.0,16.0,74,0.00,,BKN022,0.02,VWS V14.00,2013-01-17 19:32:00,
2013-01-17 13:37:00,38.8,30.6,30.36,NNE,32,7.0,16.0,72,0.00,,BKN022,0.02,VWS V14.00,2013-01-17 19:37:00,
2013-01-17 13:42:00,38.7,30.8,30.35,WNW,284,7.0,16.0,73,0.00,,BKN022,0.02,VWS V14.00,2013-01-17 19:42:00,
2013-01-17 13:47:00,38.8,31.9,30.35,NW,306,9.0,16.0,76,0.00,,BKN022,0.02,VWS V14.00,2013-01-17 19:47:00,
2013-01-17 13:52:00,38.9,30.7,30.36,NNE,17,7.0,9.0,72,0.00,,BKN022,0.02,VWS V14.00,2013-01-17 19:52:00,
2013-01-17 13:57:00,38.9,30.7,30.36,North,351,4.0,14.0,72,0.00,,BKN022,0.02,VWS V14.00,2013-01-17 19:57:00,
2013-01-17 14:00:00,38.9,31.0,30.36,ENE,59,6.0,16.0,73,0.00,,-RA,0.02,VWS V14.00,2013-01-17 20:00:00,
2013-01-17 14:02:00,38.4,30.2,30.36,NNE,12,7.0,14.0,72,0.00,,SCT028,0.02,VWS V14.00,2013-01-17 20:02:00,
2013-01-17 14:07:00,38.2,30.3,30.36,NE,36,6.0,14.0,73,0.00,,SCT028,0.02,VWS V14.00,2013-01-17 20:07:00,
2013-01-17 14:12:00,38.5,31.0,30.36,NNE,23,5.0,14.0,74,0.00,,SCT028,0.02,VWS V14.00,2013-01-17 20:12:00,
2013-01-17 14:17:00,38.9,30.7,30.36,West,275,5.0,14.0,72,0.00,,SCT028,0.02,VWS V14.00,2013-01-17 20:17:00,
2013-01-17 14:22:00,39.3,30.7,30.36,North,351,1.0,6.0,71,0.00,,,0.02,VWS V14.00,2013-01-17 20:22:00,
2013-01-17 14:27:00,39.5,30.9,30.36,ESE,109,1.0,9.0,71,0.00,,,0.02,VWS V14.00,2013-01-17 20:27:00,
2013-01-17 14:30:00,39.2,30.6,30.36,West,269,1.0,16.0,71,0.00,,-RA,0.02,VWS V14.00,2013-01-17 20:30:00,
2013-01-17 14:32:00,39.7,30.4,30.36,North,5,2.0,10.0,69,0.00,,,0.02,VWS V14.00,2013-01-17 20:32:00,
2013-01-17 14:37:00,39.8,29.8,30.37,NNE,13,5.0,11.0,67,0.00,,,0.02,VWS V14.00,2013-01-17 20:37:00,
2013-01-17 14:42:00,39.8,30.1,30.37,NNW,343,3.0,12.0,68,0.00,,,0.02,VWS V14.00,2013-01-17 20:42:00,
2013-01-17 14:47:00,39.6,29.9,30.37,NNE,15,2.0,12.0,68,0.00,,,0.02,VWS V14.00,2013-01-17 20:47:00,
2013-01-17 14:51:00,39.5,30.2,30.37,NW,315,4.0,11.0,69,0.00,,,0.02,VWS V14.00,2013-01-17 20:51:00,
2013-01-17 14:56:00,39.3,29.6,30.37,North,351,3.0,12.0,68,0.00,,,0.02,VWS V14.00,2013-01-17 20:56:00,
2013-01-17 15:00:00,39.5,30.2,30.37,NNE,26,9.0,12.0,69,0.00,,-RA,0.02,VWS V14.00,2013-01-17 21:00:00,
2013-01-17 15:01:00,39.2,29.9,30.38,North,5,9.0,12.0,69,0.00,,,0.02,VWS V14.00,2013-01-17 21:01:00,
2013-01-17 15:06:00,38.9,29.6,30.38,NW,320,5.0,13.0,69,0.00,,,0.02,VWS V14.00,2013-01-17 21:06:00,
2013-01-17 15:11:00,38.8,29.5,30.38,NW,313,3.0,15.0,69,0.00,,,0.02,VWS V14.00,2013-01-17 21:11:00,
2013-01-17 15:16:00,38.6,29.0,30.38,NNW,342,5.0,20.0,68,0.00,,,0.02,VWS V14.00,2013-01-17 21:16:00,
2013-01-17 15:21:00,38.6,29.0,30.38,NW,325,9.0,9.0,68,0.00,,CLR,0.02,VWS V14.00,2013-01-17 21:21:00,
2013-01-17 15:26:00,38.7,28.7,30.38,NNE,22,6.0,11.0,67,0.00,,CLR,0.02,VWS V14.00,2013-01-17 21:26:00,
2013-01-17 15:30:00,38.6,29.0,30.38,North,355,1.0,20.0,68,0.00,,-RA,0.02,VWS V14.00,2013-01-17 21:30:00,
2013-01-17 15:31:00,38.7,28.3,30.39,North,349,15.0,15.0,66,0.00,,CLR,0.02,VWS V14.00,2013-01-17 21:31:00,
2013-01-17 15:36:00,38.4,28.4,30.39,NNW,340,7.0,15.0,67,0.00,,CLR,0.02,VWS V14.00,2013-01-17 21:36:00,
2013-01-17 15:41:00,38.3,28.3,30.39,NW,309,4.0,15.0,67,0.00,,CLR,0.02,VWS V14.00,2013-01-17 21:41:00,
2013-01-17 15:46:00,38.1,27.8,30.40,NW,319,3.0,15.0,66,0.00,,CLR,0.02,VWS V14.00,2013-01-17 21:46:00,
2013-01-17 15:51:00,38.0,26.9,30.40,ENE,70,4.0,15.0,64,0.00,,CLR,0.02,VWS V14.00,2013-01-17 21:51:00,
2013-01-17 15:56:00,37.8,27.1,30.40,NNW,336,3.0,16.0,65,0.00,,CLR,0.02,VWS V14.00,2013-01-17 21:56:00,
2013-01-17 16:00:00,38.0,27.3,30.40,NW,321,5.0,15.0,65,0.00,,-RA,0.02,VWS V14.00,2013-01-17 22:00:00,
2013-01-17 16:01:00,37.7,27.0,30.40,NW,321,1.0,16.0,65,0.00,,CLR,0.02,VWS V14.00,2013-01-17 22:01:00,
2013-01-17 16:06:00,37.5,26.8,30.40,NNW,344,4.0,16.0,65,0.00,,CLR,0.02,VWS V14.00,2013-01-17 22:06:00,
2013-01-17 16:11:00,37.4,27.1,30.41,NNW,344,8.0,16.0,66,0.00,,CLR,0.02,VWS V14.00,2013-01-17 22:11:00,
2013-01-17 16:16:00,37.1,27.2,30.41,NNW,331,7.0,16.0,67,0.00,,CLR,0.02,VWS V14.00,2013-01-17 22:16:00,
2013-01-17 16:21:00,36.9,27.7,30.41,NW,311,6.0,8.0,69,0.00,,CLR,0.02,VWS V14.00,2013-01-17 22:21:00,
2013-01-17 16:26:00,36.7,27.9,30.42,NW,322,0.0,8.0,70,0.00,,CLR,0.02,VWS V14.00,2013-01-17 22:26:00,
2013-01-17 16:30:00,37.0,28.1,30.41,WNW,284,4.0,16.0,70,0.00,,-RA,0.02,VWS V14.00,2013-01-17 22:30:00,
2013-01-17 16:31:00,36.5,28.0,30.42,NNE,21,0.0,10.0,71,0.00,,CLR,0.02,VWS V14.00,2013-01-17 22:31:00,
2013-01-17 16:36:00,36.2,27.4,30.42,NW,321,1.0,10.0,70,0.00,,CLR,0.02,VWS V14.00,2013-01-17 22:36:00,
2013-01-17 16:41:00,36.0,27.5,30.42,NNW,330,0.0,10.0,71,0.00,,CLR,0.02,VWS V14.00,2013-01-17 22:41:00,
2013-01-17 16:46:00,35.6,26.8,30.42,NW,308,2.0,11.0,70,0.00,,CLR,0.02,VWS V14.00,2013-01-17 22:46:00,
2013-01-17 16:51:00,35.3,26.5,30.42,WNW,302,3.0,9.0,70,0.00,,CLR,0.02,VWS V14.00,2013-01-17 22:51:00,
2013-01-17 16:56:00,35.0,26.6,30.43,NW,314,1.0,9.0,71,0.00,,CLR,0.02,VWS V14.00,2013-01-17 22:56:00,
2013-01-17 17:00:00,35.4,26.6,30.42,NE,36,3.0,11.0,70,0.00,,-RA,0.02,VWS V14.00,2013-01-17 23:00:00,
2013-01-17 17:01:00,34.7,26.6,30.43,NW,313,4.0,9.0,72,0.00,,CLR,0.02,VWS V14.00,2013-01-17 23:01:00,
2013-01-17 17:06:00,34.3,26.6,30.43,NNW,342,1.0,9.0,73,0.00,,CLR,0.02,VWS V14.00,2013-01-17 23:06:00,
2013-01-17 17:11:00,34.1,26.4,30.44,WNW,288,2.0,9.0,73,0.00,,CLR,0.02,VWS V14.00,2013-01-17 23:11:00,
2013-01-17 17:16:00,33.8,26.1,30.44,NNE,33,3.0,9.0,73,0.00,,CLR,0.02,VWS V14.00,2013-01-17 23:16:00,
2013-01-17 17:21:00,33.5,26.1,30.44,WNW,291,0.0,5.0,74,0.00,,CLR,0.02,VWS V14.00,2013-01-17 23:21:00,
2013-01-17 17:26:00,33.3,25.9,30.45,WNW,296,2.0,10.0,74,0.00,,CLR,0.02,VWS V14.00,2013-01-17 23:26:00,
2013-01-17 17:30:00,33.6,26.2,30.44,NW,309,2.0,9.0,74,0.00,,-RA,0.02,VWS V14.00,2013-01-17 23:30:00,
2013-01-17 17:31:00,33.1,26.0,30.45,NW,317,4.0,10.0,75,0.00,,CLR,0.02,VWS V14.00,2013-01-17 23:31:00,
2013-01-17 17:36:00,32.9,25.9,30.46,North,350,0.0,10.0,75,0.00,,CLR,0.02,VWS V14.00,2013-01-17 23:36:00,
2013-01-17 17:41:00,32.7,25.7,30.46,NNW,336,4.0,10.0,75,0.00,,CLR,0.02,VWS V14.00,2013-01-17 23:41:00,
2013-01-17 17:46:00,32.4,25.7,30.47,North,355,2.0,10.0,76,0.00,,CLR,0.02,VWS V14.00,2013-01-17 23:46:00,
2013-01-17 17:51:00,32.2,25.5,30.47,NNW,336,0.0,3.0,76,0.00,,CLR,0.02,VWS V14.00,2013-01-17 23:51:00,
2013-01-17 17:56:00,32.0,25.3,30.47,NW,319,3.0,5.0,76,0.00,,CLR,0.02,VWS V14.00,2013-01-17 23:56:00,
2013-01-17 18:00:00,32.3,25.3,30.47,NNW,336,3.0,10.0,75,0.00,,-RA,0.02,VWS V14.00,2013-01-18 00:00:00,
2013-01-17 18:01:00,31.8,25.4,30.47,NNW,339,2.0,5.0,77,0.00,,CLR,0.02,VWS V14.00,2013-01-18 00:01:00,
2013-01-17 18:06:00,31.4,25.4,30.48,NNW,345,2.0,7.0,78,0.00,,CLR,0.02,VWS V14.00,2013-01-18 00:06:00,
2013-01-17 18:11:00,31.0,25.0,30.48,NNW,335,2.0,7.0,78,0.00,,CLR,0.02,VWS V14.00,2013-01-18 00:11:00,
2013-01-17 18:16:00,30.9,25.2,30.48,NW,317,0.0,7.0,79,0.00,,CLR,0.02,VWS V14.00,2013-01-18 00:16:00,
2013-01-17 18:21:00,30.8,25.1,30.48,NNW,338,4.0,8.0,79,0.00,,CLR,0.02,VWS V14.00,2013-01-18 00:21:00,
2013-01-17 18:26:00,30.8,25.1,30.49,WNW,292,0.0,8.0,79,0.00,,CLR,0.02,VWS V14.00,2013-01-18 00:26:00,
2013-01-17 18:30:00,30.8,25.1,30.48,NW,313,3.0,7.0,79,0.00,,-RA,0.02,VWS V14.00,2013-01-18 00:30:00,
2013-01-17 18:31:00,30.7,24.7,30.49,NW,319,4.0,9.0,78,0.00,,CLR,0.02,VWS V14.00,2013-01-18 00:31:00,
2013-01-17 18:36:00,30.6,24.6,30.49,NW,316,0.0,9.0,78,0.00,,CLR,0.02,VWS V14.00,2013-01-18 00:36:00,
2013-01-17 18:41:00,30.5,24.5,30.50,NW,323,0.0,9.0,78,0.00,,CLR,0.02,VWS V14.00,2013-01-18 00:41:00,
2013-01-17 18:46:00,30.4,24.4,30.50,NNW,329,0.0,9.0,78,0.00,,CLR,0.02,VWS V14.00,2013-01-18 00:46:00,
2013-01-17 18:51:00,30.4,24.4,30.50,NW,325,1.0,1.0,78,0.00,,CLR,0.02,VWS V14.00,2013-01-18 00:51:00,
2013-01-17 18:56:00,30.3,24.0,30.50,NNW,344,1.0,5.0,77,0.00,,CLR,0.02,VWS V14.00,2013-01-18 00:56:00,
2013-01-17 19:00:00,30.4,24.4,30.50,NW,325,0.0,9.0,78,0.00,,-RA,0.02,VWS V14.00,2013-01-18 01:00:00,
2013-01-17 19:01:00,30.3,24.0,30.51,North,11,2.0,6.0,77,0.00,,CLR,0.02,VWS V14.00,2013-01-18 01:01:00,
2013-01-17 19:06:00,30.2,23.9,30.51,NNW,341,0.0,6.0,77,0.00,,CLR,0.02,VWS V14.00,2013-01-18 01:06:00,
2013-01-17 19:11:00,30.0,24.0,30.51,NNW,342,2.0,6.0,78,0.00,,CLR,0.02,VWS V14.00,2013-01-18 01:11:00,
2013-01-17 19:16:00,29.8,23.8,30.52,NNW,331,0.0,6.0,78,0.00,,CLR,0.02,VWS V14.00,2013-01-18 01:16:00,
2013-01-17 19:21:00,29.6,23.6,30.52,NNW,329,0.0,3.0,78,0.00,,CLR,0.02,VWS V14.00,2013-01-18 01:21:00,
2013-01-17 19:26:00,29.4,23.7,30.52,NNW,329,0.0,3.0,79,0.00,,CLR,0.02,VWS V14.00,2013-01-18 01:26:00,
2013-01-17 19:30:00,29.7,24.0,30.52,NNW,329,0.0,6.0,79,0.00,,-RA,0.02,VWS V14.00,2013-01-18 01:30:00,
2013-01-17 19:31:00,29.1,23.4,30.52,NNW,337,0.0,5.0,79,0.00,,CLR,0.02,VWS V14.00,2013-01-18 01:31:00,
2013-01-17 19:36:00,28.9,23.5,30.53,NNW,328,3.0,7.0,80,0.00,,CLR,0.02,VWS V14.00,2013-01-18 01:36:00,
2013-01-17 19:41:00,28.7,23.3,30.53,North,355,0.0,7.0,80,0.00,,CLR,0.02,VWS V14.00,2013-01-18 01:41:00,
2013-01-17 19:46:00,28.5,23.1,30.53,NNW,342,2.0,7.0,80,0.00,,CLR,0.02,VWS V14.00,2013-01-18 01:46:00,
2013-01-17 19:51:00,28.3,23.2,30.53,NNW,346,2.0,3.0,81,0.00,,CLR,0.02,VWS V14.00,2013-01-18 01:51:00,
2013-01-17 19:56:00,28.2,22.8,30.52,NNW,340,0.0,4.0,80,0.00,,CLR,0.02,VWS V14.00,2013-01-18 01:56:00,
2013-01-17 20:00:00,28.3,23.2,30.53,NNW,346,1.0,7.0,81,0.00,,-RA,0.02,VWS V14.00,2013-01-18 02:00:00,
2013-01-17 20:01:00,28.1,23.0,30.53,NNW,340,0.0,4.0,81,0.00,,CLR,0.02,VWS V14.00,2013-01-18 02:01:00,
2013-01-17 20:06:00,28.0,22.6,30.53,NNW,340,0.0,4.0,80,0.00,,CLR,0.02,VWS V14.00,2013-01-18 02:06:00,
2013-01-17 20:11:00,27.9,22.5,30.53,NNW,340,0.0,4.0,80,0.00,,CLR,0.02,VWS V14.00,2013-01-18 02:11:00,
2013-01-17 20:16:00,27.8,22.4,30.53,NNW,340,0.0,4.0,80,0.00,,CLR,0.02,VWS V14.00,2013-01-18 02:16:00,
2013-01-17 20:21:00,27.8,22.4,30.54,NNW,340,0.0,0.0,80,0.00,,CLR,0.02,VWS V14.00,2013-01-18 02:21:00,
2013-01-17 20:26:00,27.7,22.4,30.53,NNW,340,0.0,2.0,80,0.00,,CLR,0.02,VWS V14.00,2013-01-18 02:26:00,
2013-01-17 20:30:00,27.8,22.4,30.54,NNW,340,0.0,4.0,80,0.00,,-RA,0.02,VWS V14.00,2013-01-18 02:30:00,
2013-01-17 20:31:00,27.7,22.4,30.53,NNW,340,0.0,2.0,80,0.00,,CLR,0.02,VWS V14.00,2013-01-18 02:31:00,
2013-01-17 20:36:00,27.6,22.2,30.53,NNW,340,0.0,2.0,80,0.00,,CLR,0.02,VWS V14.00,2013-01-18 02:36:00,
2013-01-17 20:41:00,27.5,22.1,30.53,NNW,340,0.0,2.0,80,0.00,,CLR,0.02,VWS V14.00,2013-01-18 02:41:00,
2013-01-17 20:46:00,27.4,22.0,30.53,NNW,340,0.0,2.0,80,0.00,,CLR,0.02,VWS V14.00,2013-01-18 02:46:00,
2013-01-17 20:51:00,27.2,22.1,30.54,NNW,340,0.0,0.0,81,0.00,,CLR,0.02,VWS V14.00,2013-01-18 02:51:00,
2013-01-17 20:56:00,27.0,22.0,30.54,NNW,340,0.0,1.0,81,0.00,,CLR,0.02,VWS V14.00,2013-01-18 02:56:00,
2013-01-17 21:00:00,27.2,22.1,30.54,NNW,340,0.0,2.0,81,0.00,,-RA,0.02,VWS V14.00,2013-01-18 03:00:00,
2013-01-17 21:01:00,26.8,22.0,30.54,NNW,340,0.0,1.0,82,0.00,,CLR,0.02,VWS V14.00,2013-01-18 03:01:00,
2013-01-17 21:06:00,26.5,21.8,30.54,NNW,340,0.0,1.0,82,0.00,,CLR,0.02,VWS V14.00,2013-01-18 03:06:00,
2013-01-17 21:11:00,26.3,21.6,30.55,NNW,340,0.0,1.0,82,0.00,,CLR,0.02,VWS V14.00,2013-01-18 03:11:00,
2013-01-17 21:16:00,26.1,21.6,30.55,NNW,340,0.0,1.0,83,0.00,,CLR,0.02,VWS V14.00,2013-01-18 03:16:00,
2013-01-17 21:21:00,25.9,21.5,30.55,NNW,340,0.0,0.0,83,0.00,,CLR,0.02,VWS V14.00,2013-01-18 03:21:00,
2013-01-17 21:26:00,25.8,21.4,30.55,NNW,340,0.0,0.0,83,0.00,,CLR,0.02,VWS V14.00,2013-01-18 03:26:00,
2013-01-17 21:30:00,26.0,21.6,30.55,NNW,340,0.0,1.0,83,0.00,,-RA,0.02,VWS V14.00,2013-01-18 03:30:00,
2013-01-17 21:31:00,25.6,21.5,30.55,NNW,340,0.0,1.0,84,0.00,,CLR,0.02,VWS V14.00,2013-01-18 03:31:00,
2013-01-17 21:36:00,25.5,21.4,30.55,NNW,340,0.0,1.0,84,0.00,,CLR,0.02,VWS V14.00,2013-01-18 03:36:00,
2013-01-17 21:41:00,25.5,21.4,30.55,NNW,340,0.0,1.0,84,0.00,,CLR,0.02,VWS V14.00,2013-01-18 03:41:00,
2013-01-17 21:46:00,25.4,21.5,30.55,NNW,340,0.0,1.0,85,0.00,,CLR,0.02,VWS V14.00,2013-01-18 03:46:00,
2013-01-17 21:51:00,25.3,21.4,30.56,NNW,340,0.0,0.0,85,0.00,,CLR,0.02,VWS V14.00,2013-01-18 03:51:00,
2013-01-17 21:56:00,25.1,21.2,30.56,NNW,340,0.0,1.0,85,0.00,,CLR,0.02,VWS V14.00,2013-01-18 03:56:00,
2013-01-17 22:00:00,25.3,21.4,30.56,NNW,340,0.0,1.0,85,0.00,,-RA,0.02,VWS V14.00,2013-01-18 04:00:00,
2013-01-17 22:01:00,25.1,21.2,30.57,NNW,340,0.0,1.0,85,0.00,,CLR,0.02,VWS V14.00,2013-01-18 04:01:00,
2013-01-17 22:06:00,25.0,21.4,30.57,NNW,340,0.0,1.0,86,0.00,,CLR,0.02,VWS V14.00,2013-01-18 04:06:00,
2013-01-17 22:11:00,24.9,21.3,30.57,NNW,340,0.0,1.0,86,0.00,,CLR,0.02,VWS V14.00,2013-01-18 04:11:00,
2013-01-17 22:16:00,24.8,21.2,30.57,NNW,340,0.0,1.0,86,0.00,,CLR,0.02,VWS V14.00,2013-01-18 04:16:00,
2013-01-17 22:21:00,24.8,21.5,30.57,NNW,340,0.0,0.0,87,0.00,,CLR,0.02,VWS V14.00,2013-01-18 04:21:00,
2013-01-17 22:26:00,24.7,21.1,30.57,NNW,340,0.0,0.0,86,0.00,,CLR,0.02,VWS V14.00,2013-01-18 04:26:00,
2013-01-17 22:30:00,24.8,21.5,30.57,NNW,340,0.0,1.0,87,0.00,,-RA,0.02,VWS V14.00,2013-01-18 04:30:00,
2013-01-17 22:31:00,24.7,21.7,30.57,NNW,340,0.0,0.0,88,0.00,,CLR,0.02,VWS V14.00,2013-01-18 04:31:00,
2013-01-17 22:36:00,24.6,21.6,30.57,NNW,340,0.0,0.0,88,0.00,,CLR,0.02,VWS V14.00,2013-01-18 04:36:00,
2013-01-17 22:41:00,24.5,21.7,30.57,NNW,340,0.0,0.0,89,0.00,,CLR,0.02,VWS V14.00,2013-01-18 04:41:00,
2013-01-17 22:46:00,24.4,21.6,30.57,NNW,340,0.0,0.0,89,0.00,,CLR,0.02,VWS V14.00,2013-01-18 04:46:00,
2013-01-17 22:51:00,24.2,21.4,30.56,NNW,340,0.0,0.0,89,0.00,,CLR,0.02,VWS V14.00,2013-01-18 04:51:00,
2013-01-17 22:56:00,24.0,21.2,30.56,NNW,340,0.0,0.0,89,0.00,,CLR,0.02,VWS V14.00,2013-01-18 04:56:00,
2013-01-17 23:00:00,24.0,21.2,30.56,NNW,340,0.0,0.0,89,0.00,,CLR,0.02,VWS V14.00,2013-01-18 05:00:00,
2013-01-17 23:01:00,23.9,21.1,30.56,NNW,340,0.0,0.0,89,0.00,,CLR,0.02,VWS V14.00,2013-01-18 05:01:00,
2013-01-17 23:02:00,23.9,21.1,30.57,NNW,340,0.0,0.0,89,0.00,,CLR,0.02,VWS V14.00,2013-01-18 05:02:00,
2013-01-17 23:03:00,23.9,21.1,30.56,NNW,340,0.0,0.0,89,0.00,,CLR,0.02,VWS V14.00,2013-01-18 05:03:00,
2013-01-17 23:08:00,23.8,21.0,30.57,NNW,340,0.0,0.0,89,0.00,,CLR,0.02,VWS V14.00,2013-01-18 05:08:00,
2013-01-17 23:13:00,23.7,21.2,30.57,NNW,340,0.0,0.0,90,0.00,,CLR,0.02,VWS V14.00,2013-01-18 05:13:00,
2013-01-17 23:18:00,23.6,21.1,30.57,NNW,340,0.0,0.0,90,0.00,,CLR,0.02,VWS V14.00,2013-01-18 05:18:00,
2013-01-17 23:23:00,23.4,20.9,30.57,NNW,340,0.0,0.0,90,0.00,,CLR,0.02,VWS V14.00,2013-01-18 05:23:00,
2013-01-17 23:28:00,23.4,20.9,30.57,NNW,340,0.0,0.0,90,0.00,,CLR,0.02,VWS V14.00,2013-01-18 05:28:00,
2013-01-17 23:30:00,23.6,21.1,30.57,NNW,340,0.0,0.0,90,0.00,,-RA,0.02,VWS V14.00,2013-01-18 05:30:00,
2013-01-17 23:33:00,23.4,21.2,30.57,NNW,340,0.0,0.0,91,0.00,,CLR,0.02,VWS V14.00,2013-01-18 05:33:00,
2013-01-17 23:38:00,23.3,21.1,30.58,NNW,340,0.0,0.0,91,0.00,,CLR,0.02,VWS V14.00,2013-01-18 05:38:00,
2013-01-17 23:43:00,23.1,20.9,30.58,NNW,340,0.0,0.0,91,0.00,,CLR,0.02,VWS V14.00,2013-01-18 05:43:00,
2013-01-17 23:48:00,23.1,20.9,30.57,NNW,340,0.0,0.0,91,0.00,,CLR,0.02,VWS V14.00,2013-01-18 05:48:00,
2013-01-17 23:53:00,23.0,20.8,30.58,NNW,340,0.0,0.0,91,0.00,,CLR,0.00,VWS V14.00,2013-01-18 05:53:00,
2013-01-17 23:58:00,22.9,20.7,30.58,NNW,340,0.0,0.0,91,0.00,,CLR,0.00,VWS V14.00,2013-01-18 05:58:00,